KF5CFW Weather Reports


Display with metric or nautical units.
time (UTC)temp
F
wind
direction
speed
MPH
gust
MPH
rain 1hr
in
rain 24hr
in
rain mn
in
humidity
%
barometer
mb
20260901021518 90 136 0.0 0.0 0.00 0.00 0.00 39 1012.1
20260901020015 91 135 0.0 0.0 0.00 0.00 0.00 39 1011.9
20260901014510 92 135 0.0 0.0 0.00 0.00 0.00 38 1011.8
20260901013012 93 136 0.0 0.0 0.00 0.00 0.00 37 1011.7
20260901011510 94 136 0.0 0.0 0.00 0.00 0.00 36 1011.6
20260901010016 94 136 0.0 0.0 0.00 0.00 0.00 35 1011.5
20260901004547 95 136 0.0 0.0 0.00 0.00 0.00 34 1011.4
20260901003049 96 135 0.0 0.0 0.00 0.00 0.00 34 1011.4
20260901001547 97 118 0.0 1.0 0.00 0.00 0.00 33 1011.4
20260901000045 98 146 0.0 0.0 0.00 0.00 0.00 32 1011.4
20260831234553 98 158 0.0 1.0 0.00 0.00 0.00 31 1011.4
20260831233044 100 132 0.0 1.0 0.00 0.00 0.00 31 1011.5
20260831231543 100 134 0.0 1.0 0.00 0.00 0.00 30 1011.4
20260831230042 101 70 0.0 1.0 0.00 0.00 0.00 30 1011.4
20260831224543 103 144 0.0 1.0 0.00 0.00 0.00 29 1011.5
20260831223046 105 143 0.0 2.0 0.00 0.00 0.00 28 1011.5
20260831221554 105 183 0.0 1.0 0.00 0.00 0.00 28 1011.7
20260831220036 104 76 0.0 2.0 0.00 0.00 0.00 27 1011.8
20260831214535 104 170 0.0 2.0 0.00 0.00 0.00 28 1011.9
20260831213033 104 153 0.0 1.0 0.00 0.00 0.00 29 1012.1
20260831211537 103 151 0.0 1.0 0.00 0.00 0.00 29 1012.2
20260831210031 104 127 0.0 2.0 0.00 0.00 0.00 28 1012.4
20260831204528 104 91 0.0 1.0 0.00 0.00 0.00 28 1012.5
20260831203038 103 198 0.0 3.0 0.00 0.00 0.00 29 1012.9
20260831201524 101 62 0.0 4.0 0.00 0.00 0.00 30 1013.0
20260831200027 103 54 0.0 2.0 0.00 0.00 0.00 31 1013.1
20260831194523 101 143 0.0 1.0 0.00 0.00 0.00 33 1013.3
20260831193020 102 153 0.0 1.0 0.00 0.00 0.00 32 1013.6
20260831191522 100 66 0.0 2.0 0.00 0.00 0.00 33 1013.7
20260831190022 102 130 0.0 2.0 0.00 0.00 0.00 33 1013.8
20260831184519 102 135 0.0 2.0 0.00 0.00 0.00 33 1014.0
20260831183018 103 112 0.0 2.0 0.00 0.00 0.00 33 1014.1
20260831181515 103 131 0.0 1.0 0.00 0.00 0.00 33 1014.4
20260831180011 102 158 0.0 3.0 0.00 0.00 0.00 33 1014.6
20260831174509 102 155 0.0 2.0 0.00 0.00 0.00 34 1015.1
20260831173006 101 134 0.0 3.0 0.00 0.00 0.00 34 1015.2
20260831171504 100 148 0.0 1.0 0.00 0.00 0.00 36 1015.4
20260831170100 99 186 0.0 2.0 0.00 0.00 0.00 36 1015.5
20260831164556 99 217 0.0 1.0 0.00 0.00 0.00 38 1015.4
20260831163053 98 167 0.0 2.0 0.00 0.00 0.00 38 1015.5
20260831161549 96 193 0.0 1.0 0.00 0.00 0.00 41 1015.5
20260831160045 94 225 0.0 1.0 0.00 0.00 0.00 43 1015.5
20260831154544 92 217 0.0 1.0 0.00 0.00 0.00 46 1015.5
20260831153039 91 222 0.0 1.0 0.00 0.00 0.00 49 1015.5
20260831151533 90 254 0.0 1.0 0.00 0.00 0.00 52 1015.5
20260831150030 88 253 0.0 1.0 0.00 0.00 0.00 54 1015.4
20260831144526 87 266 0.0 1.0 0.00 0.00 0.00 57 1015.3
20260831143027 86 211 0.0 1.0 0.00 0.00 0.00 59 1015.2
20260831141525 84 246 0.0 1.0 0.00 0.00 0.00 59 1015.4
20260831140027 83 318 0.0 1.0 0.00 0.00 0.00 57 1015.4
20260831134523 82 164 0.0 1.0 0.00 0.00 0.00 54 1015.2
20260831133031 81 208 0.0 1.0 0.00 0.00 0.00 49 1015.1
20260831131518 80 167 0.0 1.0 0.00 0.00 0.00 45 1014.7
20260831130016 80 225 0.0 1.0 0.00 0.00 0.00 43 1014.4
20260831124518 80 307 0.0 0.0 0.00 0.00 0.00 42 1014.3
20260831123012 79 153 0.0 1.0 0.00 0.00 0.00 45 1014.1
20260831121511 80 139 0.0 1.0 0.00 0.00 0.00 48 1014.0
20260831120011 80 153 0.0 1.0 0.00 0.00 0.00 51 1013.7
20260831114507 80 151 0.0 1.0 0.00 0.00 0.00 53 1013.6
20260831113004 80 151 0.0 1.0 0.00 0.00 0.00 55 1013.4
20260831111503 80 150 0.0 0.0 0.00 0.00 0.00 56 1013.2
20260831110002 81 174 0.0 1.0 0.00 0.00 0.00 57 1013.1
20260831104602 81 148 0.0 0.0 0.00 0.00 0.00 58 1013.2
20260831103105 81 187 0.0 1.0 0.00 0.00 0.00 58 1013.2
20260831101558 81 225 0.0 1.0 0.00 0.00 0.00 59 1013.1
20260831100103 82 156 0.0 1.0 0.00 0.00 0.00 60 1013.0
20260831094559 82 150 0.0 0.0 0.00 0.00 0.00 60 1013.0
20260831093054 82 150 0.0 1.0 0.00 0.00 0.00 60 1013.0
20260831091600 82 148 0.0 0.0 0.00 0.00 0.00 60 1013.0
20260831090051 82 148 0.0 1.0 0.00 0.00 0.00 60 1012.9
20260831084549 83 148 0.0 1.0 0.00 0.00 0.00 59 1012.8
20260831083047 83 148 0.0 0.0 0.00 0.00 0.00 58 1012.8
20260831081545 83 156 0.0 1.0 0.00 0.00 0.00 57 1012.7
20260831080100 84 194 0.0 1.0 0.00 0.00 0.00 56 1012.7
20260831074542 84 240 0.0 1.0 0.00 0.00 0.00 55 1012.6
20260831073101 85 231 0.0 1.0 0.00 0.00 0.00 53 1012.6
20260831071547 85 150 0.0 1.0 0.00 0.00 0.00 52 1012.6
20260831070036 86 328 0.0 1.0 0.00 0.00 0.00 50 1012.6
20260831064534 87 152 0.0 1.0 0.00 0.00 0.00 49 1012.7
20260831063041 87 163 0.0 1.0 0.00 0.00 0.00 48 1012.6
20260831061533 87 153 0.0 1.0 0.00 0.00 0.00 48 1012.6
20260831060031 87 146 0.0 1.0 0.00 0.00 0.00 48 1012.7
20260831054530 87 132 0.0 0.0 0.00 0.00 0.00 48 1012.7
20260831053029 87 144 0.0 1.0 0.00 0.00 0.00 48 1012.7
20260831051532 87 140 0.0 0.0 0.00 0.00 0.00 47 1012.5
20260831050025 87 140 0.0 0.0 0.00 0.00 0.00 47 1012.5
20260831044524 88 139 0.0 0.0 0.00 0.00 0.00 47 1012.4
20260831043023 88 139 0.0 0.0 0.00 0.00 0.00 47 1012.4
20260831041523 89 139 0.0 0.0 0.00 0.00 0.00 46 1012.3
20260831040023 89 140 0.0 0.0 0.00 0.00 0.00 45 1012.3
20260831034527 90 140 0.0 0.0 0.00 0.00 0.00 44 1012.3
20260831033033 90 139 0.0 0.0 0.00 0.00 0.00 44 1012.1
20260831031521 91 130 0.0 0.0 0.00 0.00 0.00 43 1012.0
20260831030021 91 129 0.0 0.0 0.00 0.00 0.00 43 1011.9
20260831024527 91 130 0.0 0.0 0.00 0.00 0.00 42 1011.8
20260831023019 92 130 0.0 0.0 0.00 0.00 0.00 42 1011.5